User: anonymous   Login
Location: Unspecified
(0.0000°N, 0.0000°E)
Time: 17:19:48
(UTC+00:00)
Language:

UNISAT 2 - Orbit

View from above orbital plane
View from above orbital plane
View from above satellite
View from above satellite

Ground track
Ground track

The orbit data is extracted from the following two-line orbital elements,

1 27608U 02058D   18145.43453911 -.00000029  00000-0  16047-4 0  9991
2 27608  64.5557  82.3695 0054749 316.1226  43.5535 14.77915590831218
Epoch (UTC): 25 May 2018 10:25:44
Eccentricity: 0.0054749
inclination: 64.5557°
perigee height: 597 km
apogee height: 674 km
right ascension of ascending node: 82.3695°
argument of perigee: 316.1226°
revolutions per day: 14.77915590
mean anomaly at epoch: 43.5535°
orbit number at epoch: 83121

The dashed part of the orbit path shows where the satellite is in the earth's shadow,  

DLR